SCP
6 4 3 4 3 2 2 2 3 3 2 0 0 0 0 0 0 0 0 0 0 0
5 4 3 3 4 2 3 5 4 2 0 0 0 0 0 0 0 0 0 0 0 0
4 3 4 4 3 3 5 5 1 0 0 0 0 0 0 0 0 0 0 0 0 0
4 3 4 4 4 7 5 0 0 0 0 0 0 0 0 0 0 0 0 0 0 0
4 5 6 4 4 0 0 0 0 0 0 0 0 0 0 0 0 0 0 0 0 0
1 0 0 0 0 0 0 0 0 0 0 0 0 0 0 0 0 0 0 0 0 0
0 0 0 0 0 0 0 0 0 0 0 0 0 0 0 0 0 0 0 0 0 0
0 0 0 0 0 0 0 0 0 0 0 0 0 0 0 0 0 0 0 0 0 0
0 0 0 0 0 0 0 0 0 0 0 0 0 0 0 0 0 0 0 0 0 0
0 0 0 0 0 0 0 0 0 0 0 0 0 0 0 0 0 0 0 0 0 0
0 0 0 0 0 0 0 0 0 0 0 0 0 0 0 0 0 0 0 -0 0 0
0 0 0 0 0 0 0 0 0 0 0 0 0 0 0 0 0 0 -0 -0 0 0
0 0 0 0 -0 0 0 0 0 0 0 0 0 0 0 0 0 0 -0 0 0 0
0 0 0 0 0 0 0 0 0 0 0 0 0 0 0 0 0 0 0 0 0 0
Wind_Speed_500mb
84 71 67 70 68 62 58 56 57 56 51 50 43 35 29 23 18 14 10 10 5 8
79 76 68 71 65 60 56 59 58 56 56 46 40 34 30 25 17 10 8 5 2 4
72 73 66 68 64 61 59 63 60 59 53 49 44 39 31 27 21 15 9 4 7 7
67 61 54 59 60 63 70 62 68 59 53 49 45 39 29 24 23 18 9 8 12 15
63 61 65 65 68 78 70 69 63 58 54 52 46 39 32 29 22 17 12 13 11 10
68 74 76 82 83 80 78 69 61 58 56 52 42 34 32 24 20 18 15 13 4 7
73 63 69 74 68 65 59 59 58 57 53 45 39 38 32 25 16 20 11 9 5 9
52 66 80 69 57 56 64 67 65 65 61 55 46 37 28 23 17 17 14 10 12 12
75 77 62 60 68 78 76 73 71 66 65 60 50 43 35 28 20 17 16 11 15 12
88 84 80 73 76 71 68 68 65 64 59 57 49 40 27 18 18 19 15 12 10 11
65 70 77 74 69 74 72 73 72 63 56 48 44 38 30 28 26 23 18 15 14 14
46 59 59 75 85 87 88 83 76 67 57 51 51 46 43 33 28 23 22 19 18 19
50 58 80 92 96 93 86 80 72 61 52 52 51 45 46 31 23 22 18 17 21 23
72 86 97 97 93 90 83 78 71 65 56 50 46 45 44 37 22 20 17 12 14 25
Wind_Direction_500mb
194 193 193 189 187 186 182 182 189 184 188 194 194 194 189 187 199 194 205 192 191 55
192 188 190 188 185 185 180 180 189 179 191 183 183 180 179 176 179 166 152 186 145 36
188 186 187 183 183 182 175 182 179 178 180 170 168 175 174 163 154 139 113 46 11 338
181 179 181 179 173 171 181 181 175 179 171 173 173 172 178 166 151 130 112 49 22 5
174 177 166 171 175 176 177 172 179 169 170 164 168 167 164 152 134 126 103 53 349 355
175 181 174 180 175 180 181 180 177 174 167 165 156 152 142 136 135 108 63 41 16 23
175 182 183 182 180 180 181 179 172 166 165 160 155 151 137 125 118 80 91 113 54 44
168 181 174 168 172 176 172 168 167 163 160 159 152 140 137 129 102 108 138 111 66 42
184 185 180 172 167 169 169 166 164 160 152 142 131 123 111 101 109 125 105 99 72 15
166 168 169 167 163 165 164 158 147 140 141 137 131 128 118 132 136 137 124 123 107 59
154 157 159 158 161 160 157 152 148 140 137 140 128 122 129 145 141 140 126 104 87 57
155 156 159 156 154 153 150 146 144 141 141 136 134 137 143 131 129 119 107 89 71 59
176 174 160 153 149 150 147 140 137 136 140 135 131 139 124 118 121 111 93 69 63 53
160 159 157 151 147 144 140 138 136 138 134 135 135 131 129 126 116 106 109 98 54 48
Wind_Speed_850mb
84 71 67 70 68 62 58 56 57 56 51 50 43 35 29 23 18 14 10 10 5 8
79 76 68 71 65 60 56 59 58 56 56 46 40 34 30 25 17 10 8 5 2 4
72 73 66 68 64 61 59 63 60 59 53 49 44 39 31 27 21 15 9 4 7 7
67 61 54 59 60 63 70 62 68 59 53 49 45 39 29 24 23 18 9 8 12 15
63 61 65 65 68 78 70 69 63 58 54 52 46 39 32 29 22 17 12 13 11 10
68 74 76 82 83 80 78 69 61 58 56 52 42 34 32 24 20 18 15 13 4 7
73 63 69 74 68 65 59 59 58 57 53 45 39 38 32 25 16 20 11 9 5 9
52 66 80 69 57 56 64 67 65 65 61 55 46 37 28 23 17 17 14 10 12 12
75 77 62 60 68 78 76 73 71 66 65 60 50 43 35 28 20 17 16 11 15 12
88 84 80 73 76 71 68 68 65 64 59 57 49 40 27 18 18 19 15 12 10 11
65 70 77 74 69 74 72 73 72 63 56 48 44 38 30 28 26 23 18 15 14 14
46 59 59 75 85 87 88 83 76 67 57 51 51 46 43 33 28 23 22 19 18 19
50 58 80 92 96 93 86 80 72 61 52 52 51 45 46 31 23 22 18 17 21 23
72 86 97 97 93 90 83 78 71 65 56 50 46 45 44 37 22 20 17 12 14 25
Wind_Direction_850mb
194 193 193 189 187 186 182 182 189 184 188 194 194 194 189 187 199 194 205 192 191 55
192 188 190 188 185 185 180 180 189 179 191 183 183 180 179 176 179 166 152 186 145 36
188 186 187 183 183 182 175 182 179 178 180 170 168 175 174 163 154 139 113 46 11 338
181 179 181 179 173 171 181 181 175 179 171 173 173 172 178 166 151 130 112 49 22 5
174 177 166 171 175 176 177 172 179 169 170 164 168 167 164 152 134 126 103 53 349 355
175 181 174 180 175 180 181 180 177 174 167 165 156 152 142 136 135 108 63 41 16 23
175 182 183 182 180 180 181 179 172 166 165 160 155 151 137 125 118 80 91 113 54 44
168 181 174 168 172 176 172 168 167 163 160 159 152 140 137 129 102 108 138 111 66 42
184 185 180 172 167 169 169 166 164 160 152 142 131 123 111 101 109 125 105 99 72 15
166 168 169 167 163 165 164 158 147 140 141 137 131 128 118 132 136 137 124 123 107 59
154 157 159 158 161 160 157 152 148 140 137 140 128 122 129 145 141 140 126 104 87 57
155 156 159 156 154 153 150 146 144 141 141 136 134 137 143 131 129 119 107 89 71 59
176 174 160 153 149 150 147 140 137 136 140 135 131 139 124 118 121 111 93 69 63 53
160 159 157 151 147 144 140 138 136 138 134 135 135 131 129 126 116 106 109 98 54 48